Temp
29 31 32 33 33 32 32 33 34 34 33 34 34 33 31 29 29 29 28 26 26 25 24 23 22 21 21 20 20 21 22 21 21 21 18 18 19 19 19 19 19 20 20 19
30 31 33 32 32 31 32 33 33 33 33 33 33 33 32 30 30 30 29 28 27 26 25 24 23 22 21 21 21 22 22 22 22 22 21 20 19 19 19 19 19 20 20 19
32 33 31 31 31 32 33 34 33 33 32 34 33 32 31 31 30 30 29 28 28 28 26 24 23 22 22 21 22 23 22 22 22 22 21 21 21 20 19 19 19 19 19 19
32 32 31 31 32 33 33 33 33 33 33 33 33 32 32 33 31 30 29 29 28 28 27 26 24 23 22 22 22 23 23 22 22 22 21 20 20 20 20 19 19 20 19 19
32 31 31 32 33 33 33 33 33 33 33 33 32 33 34 33 32 33 32 30 29 28 27 27 25 24 24 23 22 22 23 23 22 22 22 21 21 19 20 20 19 19 20 19
32 31 33 34 33 33 32 32 32 32 33 31 33 32 33 33 33 34 33 31 30 29 28 27 26 25 24 24 23 22 23 23 23 23 22 22 22 20 20 20 19 20 20 20
31 32 33 32 32 32 32 33 31 30 31 31 31 31 33 33 32 32 33 32 30 29 28 27 27 26 24 24 23 22 23 23 23 23 22 22 22 21 21 20 20 20 20 21
31 30 32 33 33 32 32 33 32 29 31 31 30 30 32 31 30 29 30 32 31 29 29 28 28 27 25 24 23 23 24 23 23 23 22 22 22 21 20 20 20 20 20 20
31 32 33 33 33 33 32 31 33 31 31 31 32 31 32 31 31 30 30 31 31 30 29 28 28 28 26 25 23 23 24 24 23 23 22 22 22 22 20 21 20 20 19 19
32 31 33 31 32 31 32 33 31 32 29 29 30 30 31 31 31 30 30 30 30 29 29 28 27 27 26 25 24 23 22 23 23 22 21 21 20 21 21 21 21 21 20 18
32 31 31 30 31 32 31 31 32 33 31 30 30 31 32 31 31 31 30 30 29 29 29 28 27 26 24 24 23 22 22 21 21 21 20 21 21 21 21 21 21 19 18 19
32 32 31 31 30 31 33 33 32 31 29 30 30 31 33 32 31 30 30 29 29 28 28 27 27 25 23 23 23 22 22 21 21 22 22 21 21 21 21 20 19 17 18 18
32 31 30 29 30 30 31 32 32 32 31 30 30 31 31 30 30 29 29 29 28 27 27 26 24 23 23 22 22 22 21 21 21 22 21 21 20 21 20 19 19 18 18 18
30 32 31 31 31 32 30 30 31 32 31 31 30 31 31 30 30 29 27 27 27 25 25 25 23 22 22 21 20 20 21 20 20 21 20 21 21 20 19 18 18 18 18 17
31 30 31 32 32 32 32 31 31 31 31 30 31 30 30 29 28 26 25 26 25 25 24 24 22 21 21 20 20 21 20 19 20 20 20 20 19 18 18 18 18 18 17 17
31 29 30 30 30 31 31 31 31 31 31 30 30 29 30 27 27 26 25 24 24 24 23 21 20 20 19 19 19 19 19 18 19 19 19 18 17 17 17 17 17 17 17 15
29 29 28 29 29 30 29 30 30 30 30 30 29 29 28 28 26 25 25 24 23 22 21 20 20 19 20 19 18 18 18 19 18 17 17 16 16 15 15 14 14 15 14 13
28 27 29 30 27 26 29 31 31 30 29 29 28 28 26 24 23 22 22 23 22 21 21 20 20 19 17 17 18 19 18 17 17 16 16 16 15 15 14 14 13 13 13 13
30 29 27 26 28 28 26 26 27 28 27 28 27 26 25 23 23 21 21 21 21 20 19 18 17 17 17 17 18 18 16 15 15 15 15 15 14 14 13 13 13 12 12 12
28 27 29 28 28 27 30 28 27 28 27 27 26 25 25 23 26 23 20 19 18 17 17 17 17 16 15 15 17 17 17 17 15 14 14 13 13 13 12 12 12 11 11 11
27 28 28 28 28 27 26 26 26 25 26 26 26 25 24 24 22 20 19 18 17 16 17 16 15 15 16 17 16 16 15 13 12 12 12 12 12 12 12 12 11 11 11 11
27 27 27 28 27 26 24 25 26 24 22 24 24 23 22 20 20 19 18 17 17 16 15 15 15 15 15 15 13 12 12 11 11 11 11 11 11 11 11 11 11 10 11 11
26 27 28 26 27 22 22 23 20 21 22 23 22 21 21 20 20 19 17 17 16 15 14 14 14 13 13 12 11 11 11 10 11 10 11 11 11 11 11 11 11 10 11 10
21 22 26 24 22 21 20 20 20 21 21 21 21 20 20 20 19 17 16 16 15 14 13 13 13 12 12 11 11 10 10 11 11 12 11 10 10 10 11 11 11 11 10 10
24 22 23 21 20 20 20 20 19 19 19 19 19 19 18 18 17 16 15 14 13 12 11 11 12 12 11 12 10 9 10 11 11 11 9 10 9 10 10 11 11 10 10 9
23 23 25 25 21 23 20 18 19 19 19 18 18 17 16 16 15 15 13 12 11 11 12 10 9 9 9 8 9 9 10 10 10 9 9 10 10 11 11 10 10 10 10 10
Height
1521 1519 1516 1507 1507 1510 1512 1508 1510 1511 1513 1515 1510 1519 1528 1534 1537 1541 1545 1549 1554 1558 1562 1566 1569 1572 1575 1577 1578 1580 1582 1584 1586 1587 1589 1591 1592 1593 1593 1592 1591 1591 1591 1591
1520 1518 1505 1510 1513 1514 1513 1511 1512 1515 1515 1515 1515 1520 1524 1532 1533 1537 1542 1546 1549 1554 1559 1563 1566 1569 1572 1575 1576 1578 1580 1582 1584 1586 1587 1589 1589 1591 1590 1590 1589 1588 1588 1588
1509 1504 1510 1512 1512 1513 1507 1507 1511 1511 1515 1512 1515 1524 1526 1527 1532 1535 1538 1543 1547 1550 1555 1560 1563 1566 1570 1572 1573 1575 1577 1579 1581 1583 1584 1585 1585 1585 1585 1586 1586 1586 1584 1584
1507 1506 1510 1510 1508 1505 1508 1507 1508 1511 1516 1523 1513 1527 1519 1517 1526 1531 1535 1539 1543 1547 1552 1556 1559 1562 1565 1568 1569 1571 1574 1576 1578 1580 1581 1582 1583 1585 1585 1584 1582 1581 1580 1579
1504 1506 1508 1508 1503 1503 1507 1507 1509 1511 1511 1515 1519 1523 1508 1512 1519 1519 1526 1532 1538 1544 1548 1552 1556 1559 1562 1564 1567 1568 1571 1573 1575 1577 1579 1579 1579 1581 1582 1579 1578 1578 1577 1575
1498 1503 1501 1497 1502 1504 1508 1512 1513 1513 1509 1532 1513 1522 1513 1508 1512 1508 1515 1525 1533 1539 1544 1549 1553 1556 1558 1561 1564 1566 1567 1569 1571 1573 1575 1576 1577 1578 1579 1579 1578 1578 1577 1576
1500 1500 1498 1501 1505 1507 1507 1509 1524 1535 1531 1531 1516 1525 1511 1505 1510 1513 1511 1518 1527 1534 1539 1544 1548 1552 1554 1557 1560 1562 1563 1566 1568 1570 1572 1573 1574 1575 1575 1575 1576 1575 1575 1573
1503 1512 1497 1495 1495 1503 1505 1499 1511 1544 1531 1521 1524 1530 1511 1510 1513 1515 1515 1513 1521 1529 1534 1539 1544 1549 1552 1555 1557 1559 1561 1563 1565 1567 1568 1570 1571 1571 1573 1573 1572 1572 1572 1570
1495 1495 1488 1493 1493 1495 1505 1512 1497 1514 1516 1524 1511 1513 1505 1507 1508 1511 1512 1512 1516 1525 1529 1535 1540 1545 1549 1552 1554 1556 1558 1561 1563 1564 1566 1567 1568 1569 1570 1569 1568 1569 1567 1566
1483 1497 1486 1497 1497 1500 1498 1495 1515 1509 1537 1540 1521 1525 1514 1509 1506 1509 1511 1513 1518 1523 1527 1532 1537 1542 1546 1549 1551 1553 1555 1557 1559 1561 1563 1565 1565 1565 1565 1565 1564 1563 1560 1558
1481 1488 1493 1496 1495 1493 1505 1503 1500 1498 1511 1522 1531 1517 1506 1509 1507 1508 1511 1513 1516 1521 1525 1530 1535 1539 1542 1545 1547 1549 1552 1554 1556 1558 1560 1560 1561 1561 1561 1560 1559 1557 1554 1552
1480 1481 1491 1490 1490 1491 1483 1488 1494 1508 1525 1513 1518 1516 1500 1506 1509 1510 1510 1513 1516 1520 1525 1529 1533 1537 1540 1542 1544 1547 1550 1551 1552 1554 1555 1556 1556 1556 1556 1555 1553 1551 1548 1545
1475 1483 1497 1502 1497 1495 1492 1490 1489 1492 1500 1514 1522 1510 1504 1507 1509 1511 1511 1512 1516 1520 1524 1528 1532 1535 1537 1540 1542 1545 1546 1549 1550 1550 1552 1552 1553 1552 1550 1549 1547 1545 1542 1538
1474 1472 1480 1486 1485 1478 1495 1494 1492 1494 1505 1502 1507 1502 1501 1505 1508 1510 1513 1514 1516 1521 1525 1528 1531 1533 1536 1539 1541 1543 1545 1546 1547 1548 1548 1549 1548 1546 1544 1542 1540 1537 1533 1529
1469 1477 1476 1469 1472 1472 1480 1484 1491 1495 1492 1501 1495 1501 1501 1507 1512 1514 1514 1514 1516 1519 1522 1525 1529 1531 1533 1537 1539 1541 1543 1545 1545 1545 1544 1543 1541 1539 1537 1535 1532 1528 1524 1520
1466 1477 1474 1477 1477 1477 1481 1479 1485 1488 1488 1493 1497 1502 1502 1509 1511 1513 1514 1515 1516 1518 1521 1525 1528 1530 1532 1534 1539 1542 1543 1542 1541 1540 1539 1537 1535 1533 1530 1527 1522 1518 1514 1510
1467 1471 1481 1484 1481 1481 1491 1480 1482 1484 1488 1490 1502 1497 1504 1507 1510 1511 1513 1515 1517 1519 1522 1526 1528 1530 1534 1537 1538 1539 1538 1537 1536 1534 1533 1532 1529 1526 1522 1518 1513 1509 1505 1501
1461 1471 1469 1472 1487 1508 1474 1471 1476 1483 1489 1490 1496 1500 1507 1510 1512 1513 1514 1514 1517 1521 1524 1527 1529 1532 1534 1535 1534 1534 1534 1533 1532 1530 1528 1525 1522 1519 1515 1510 1506 1501 1497 1493
1456 1459 1472 1487 1485 1478 1485 1484 1484 1487 1495 1492 1497 1503 1507 1510 1512 1515 1517 1518 1520 1523 1525 1527 1529 1531 1532 1532 1531 1531 1530 1528 1526 1523 1520 1517 1514 1510 1506 1502 1497 1493 1489 1485
1455 1459 1459 1470 1476 1487 1463 1476 1482 1486 1495 1491 1497 1502 1504 1508 1505 1512 1519 1521 1523 1524 1525 1527 1529 1530 1530 1528 1527 1525 1522 1521 1519 1516 1513 1509 1506 1502 1498 1494 1489 1485 1482 1477
1458 1456 1461 1465 1470 1470 1477 1482 1485 1500 1495 1490 1495 1500 1503 1506 1511 1516 1519 1522 1523 1524 1525 1526 1527 1526 1524 1523 1522 1521 1519 1518 1514 1512 1509 1505 1501 1496 1491 1487 1483 1478 1473 1469
1451 1459 1461 1459 1472 1479 1478 1484 1487 1489 1491 1492 1496 1500 1505 1510 1514 1517 1520 1522 1524 1525 1525 1524 1525 1524 1522 1521 1519 1518 1516 1513 1510 1506 1503 1499 1494 1490 1485 1481 1476 1472 1468 1464
1456 1448 1449 1465 1460 1475 1479 1482 1487 1489 1491 1494 1497 1501 1506 1510 1514 1517 1520 1522 1523 1524 1523 1523 1524 1523 1522 1519 1516 1515 1511 1507 1503 1500 1496 1493 1489 1484 1479 1473 1470 1466 1463 1459
1458 1459 1454 1465 1476 1478 1482 1485 1487 1490 1493 1496 1500 1503 1506 1511 1514 1517 1520 1522 1523 1523 1523 1522 1522 1521 1519 1515 1512 1509 1506 1502 1499 1495 1492 1488 1483 1478 1473 1469 1465 1462 1457 1452
1450 1457 1459 1471 1476 1481 1484 1486 1488 1492 1495 1499 1502 1505 1508 1512 1515 1518 1520 1521 1521 1521 1520 1519 1517 1516 1513 1511 1509 1506 1502 1498 1495 1491 1488 1483 1478 1473 1469 1466 1462 1457 1452 1446
1451 1454 1453 1455 1469 1471 1482 1488 1491 1494 1498 1501 1504 1507 1510 1513 1515 1517 1519 1519 1518 1517 1516 1517 1516 1514 1511 1508 1506 1503 1499 1495 1491 1487 1485 1480 1474 1470 1466 1461 1456 1452 1445 1440
Wind_Speed
13 9 11 12 9 3 1 5 11 5 2 6 4 9 12 16 15 17 17 18 18 17 17 18 18 18 17 15 15 16 17 16 16 14 13 12 12 11 11 12 13 13 14 15
7 13 9 3 4 6 5 7 9 5 2 8 6 5 9 14 15 17 18 17 17 17 17 18 19 19 18 17 17 16 15 16 15 14 14 13 12 11 12 12 14 15 16 16
14 8 9 7 9 10 9 9 10 8 8 3 6 8 9 12 13 13 15 17 17 18 18 17 18 19 18 18 18 17 15 13 10 12 14 15 15 16 14 13 12 13 16 17
11 8 10 10 10 11 9 3 3 8 13 10 8 6 11 10 13 16 18 19 19 19 17 17 17 18 18 18 18 18 18 17 17 16 15 14 14 13 12 13 13 16 17 19
9 13 12 11 10 10 6 5 3 5 9 3 10 9 10 10 12 16 20 21 20 21 20 18 17 17 17 17 17 16 17 17 16 15 13 15 14 11 9 9 9 13 14 16
2 2 7 7 7 4 10 8 6 5 7 9 6 7 9 10 14 13 20 22 21 21 20 18 16 16 16 16 16 15 16 16 17 16 12 10 10 8 7 8 9 10 11 13
13 13 7 10 12 8 12 11 7 8 8 5 5 6 12 4 4 7 10 22 22 22 22 21 20 18 17 17 16 15 15 11 11 11 11 10 10 9 8 8 9 12 14 15
14 16 15 12 13 11 13 9 4 6 5 7 4 6 3 0 7 8 12 17 23 22 22 23 24 21 19 17 16 15 14 11 10 13 12 11 8 7 8 11 12 15 18 18
15 12 11 7 7 8 9 10 5 2 2 6 5 3 8 1 2 3 12 17 18 22 23 23 24 24 20 18 16 16 16 15 14 14 12 11 10 10 11 16 17 14 18 19
8 12 12 7 9 3 8 10 7 6 3 5 7 4 2 1 3 1 7 13 18 20 22 22 21 21 20 18 16 15 16 19 17 15 13 11 11 12 16 17 19 23 24 24
9 10 11 10 12 14 7 10 8 3 5 4 3 6 4 2 6 3 4 10 15 20 22 20 19 16 17 17 16 15 14 14 14 13 11 13 13 13 16 19 23 21 23 28
16 11 10 18 5 4 10 15 14 7 10 2 6 1 6 3 3 6 6 8 13 17 17 17 17 16 15 15 14 14 13 13 13 15 15 15 14 15 20 23 21 21 27 33
18 10 9 8 8 6 12 9 12 5 4 5 7 3 5 3 5 7 9 8 13 14 15 15 15 15 13 12 12 12 12 10 9 13 14 12 12 19 23 23 24 30 34 37
22 15 16 13 15 16 13 12 14 14 9 8 10 9 4 1 3 3 6 9 11 14 15 15 13 11 10 9 9 10 10 6 9 10 11 16 21 22 22 24 28 35 37 39
15 17 15 17 6 9 14 14 15 16 15 9 3 4 2 1 3 6 5 7 11 14 15 15 12 10 10 8 8 10 7 5 8 13 16 20 22 24 25 29 35 39 40 41
11 11 12 14 11 14 14 15 16 16 10 11 6 6 0 2 3 4 4 3 6 9 10 10 10 8 7 6 3 3 5 8 14 17 21 24 24 25 30 34 37 39 41 38
13 10 11 16 10 13 15 16 18 14 12 9 9 2 3 4 5 6 4 2 3 6 9 10 8 6 5 3 2 4 9 14 18 20 22 23 25 25 27 27 31 34 33 30
14 15 9 8 10 14 3 7 14 11 8 7 3 1 2 2 5 6 4 4 8 10 11 10 8 6 3 0 5 10 14 17 19 20 21 23 25 27 27 27 28 28 29 28
14 11 5 6 14 5 5 6 9 12 11 10 7 6 6 7 9 10 9 11 12 12 11 8 6 3 2 6 11 15 16 16 19 24 26 27 27 28 28 27 28 29 27 28
9 9 10 8 14 17 4 13 7 8 8 13 10 8 8 8 7 10 11 11 12 10 8 6 4 4 5 10 16 22 26 29 25 24 26 24 24 24 26 26 27 27 26 29
11 12 14 9 10 6 8 10 12 9 2 9 10 9 10 6 6 15 12 10 9 8 4 6 7 9 14 18 21 22 21 17 18 20 21 23 25 27 27 26 24 26 31 29
11 9 8 7 12 10 12 10 9 4 4 9 12 11 12 12 14 13 10 9 7 6 6 8 9 12 15 16 16 16 16 18 19 21 22 24 26 28 26 27 29 27 24 26
7 3 4 5 3 9 8 5 4 3 6 9 14 16 16 15 12 10 8 6 6 6 8 9 10 10 10 12 14 16 17 19 21 21 23 23 23 24 24 25 26 23 22 25
4 3 4 9 6 8 8 6 6 8 11 13 14 15 13 12 10 8 6 4 4 6 7 9 9 10 12 14 16 16 19 23 25 25 23 22 23 25 24 23 23 25 28 36
2 10 9 7 9 12 9 12 15 17 17 18 16 14 12 10 9 6 4 4 4 6 8 10 13 14 16 20 18 17 20 23 23 24 24 25 22 23 23 20 21 26 30 27
9 7 6 4 15 2 16 15 16 17 16 15 14 13 11 8 6 4 4 4 5 7 10 10 11 13 15 17 15 18 23 22 22 23 20 21 23 22 21 21 27 27 28 20
Wind_Direction
203 226 217 207 220 8 271 233 173 155 129 245 223 125 158 169 178 175 178 178 182 184 187 192 192 194 196 200 207 216 222 224 227 233 232 239 245 256 258 262 269 274 274 273
187 225 208 177 212 219 219 186 175 142 165 246 167 163 158 175 187 182 183 185 181 175 182 190 196 199 202 205 212 218 223 230 237 246 249 241 246 257 259 263 267 278 278 276
215 156 142 194 193 206 200 231 157 189 166 204 189 181 180 183 189 194 195 190 188 180 182 188 194 199 204 207 215 220 217 216 222 230 248 260 266 274 270 276 275 277 284 274
231 150 195 208 205 225 193 144 176 182 204 211 213 205 189 183 198 199 200 197 193 188 187 189 194 199 202 209 214 219 227 235 244 249 248 254 253 269 277 284 284 285 284 286
177 191 199 206 201 202 94 152 176 198 218 204 185 267 137 181 220 206 202 199 197 194 193 194 200 204 207 210 213 221 221 225 234 247 256 264 272 270 284 301 295 299 303 303
242 151 224 194 139 182 140 157 173 211 236 221 203 246 245 199 229 241 200 197 196 195 194 192 194 198 201 208 209 211 221 224 235 246 254 251 248 256 263 282 291 306 308 308
201 202 167 181 151 158 200 192 193 211 204 258 109 234 252 16 358 270 242 195 194 195 194 193 195 199 201 207 209 210 226 226 231 232 235 230 221 235 261 285 305 298 312 309
198 185 189 180 206 184 212 258 286 203 194 130 148 236 223 348 292 259 229 214 192 196 194 195 195 199 200 203 207 210 225 222 214 213 208 208 223 256 272 296 297 303 303 303
204 208 145 198 180 209 165 221 22 264 121 261 145 185 240 224 332 258 211 207 192 193 192 194 195 197 201 204 205 206 214 207 205 208 222 239 249 251 261 275 289 296 296 302
203 213 182 143 168 156 271 159 193 221 242 265 134 260 356 287 353 88 208 198 193 192 192 192 195 198 204 206 202 197 204 209 220 226 224 234 238 257 277 282 292 295 301 306
204 236 156 170 206 201 176 205 233 24 316 311 233 119 82 358 356 320 224 211 199 194 193 194 193 193 196 198 198 196 198 199 205 208 216 236 249 266 279 289 296 303 307 312
208 210 206 207 108 288 224 209 200 218 174 229 319 23 126 157 288 286 257 212 203 199 196 196 195 194 194 195 195 194 194 195 205 226 242 253 267 277 287 291 299 304 310 314
187 217 187 182 167 183 211 205 221 231 285 220 276 97 136 170 253 272 260 222 203 205 205 199 196 198 198 196 190 193 203 204 215 246 259 270 274 287 293 299 302 311 308 311
183 209 229 206 209 189 195 198 209 221 225 229 220 275 148 154 314 294 259 246 225 222 215 208 205 199 191 188 186 201 212 211 258 263 270 278 288 292 296 299 303 308 307 309
211 221 219 250 287 209 204 208 209 222 240 246 337 283 351 65 347 345 318 259 234 227 220 210 205 195 185 185 198 223 255 245 254 269 281 288 292 292 294 298 302 304 307 310
214 218 208 225 236 234 236 229 211 221 222 235 246 262 257 7 316 323 318 267 233 219 210 197 184 173 166 189 229 243 255 268 270 276 287 295 296 293 294 297 299 303 308 307
186 175 197 220 212 217 228 210 207 191 202 219 227 214 82 302 331 324 294 229 174 165 163 161 153 145 138 153 228 263 275 286 296 301 303 300 295 288 290 291 297 302 303 302
182 188 197 190 165 218 130 193 205 201 196 199 155 168 95 63 69 59 62 131 131 132 132 129 128 131 130 2 287 297 305 308 308 305 302 299 295 291 290 292 296 299 301 300
185 183 149 171 205 117 142 172 181 188 198 201 201 159 157 138 132 83 86 103 113 116 114 108 100 82 340 307 303 310 318 317 316 312 308 303 298 293 293 296 298 298 298 296
189 245 210 197 221 225 174 144 147 174 209 188 203 180 165 162 221 119 122 112 104 99 94 83 54 31 355 334 331 326 322 319 319 316 312 310 305 298 295 294 294 297 294 291
177 202 214 195 227 118 122 142 158 207 106 145 175 176 165 176 54 131 124 107 97 87 62 37 20 5 341 330 325 323 324 326 322 319 315 310 304 300 299 296 295 295 296 298
180 197 208 219 222 215 151 149 207 76 103 147 161 159 144 126 119 127 120 105 89 66 33 2 352 337 331 329 333 331 327 319 320 319 317 313 310 306 301 296 296 299 299 303
203 252 197 272 180 116 144 84 112 120 144 156 152 145 141 135 130 125 112 91 58 29 8 347 344 338 336 336 337 329 321 322 320 321 322 319 315 311 309 308 301 299 300 304
141 159 146 169 118 113 128 136 123 137 134 137 140 137 137 128 121 105 87 58 33 13 0 348 341 333 332 328 329 323 315 318 321 320 318 316 314 312 314 314 312 308 305 312
64 169 141 94 122 126 119 121 126 123 124 124 121 117 114 113 104 103 76 42 15 4 343 346 327 323 321 322 329 330 322 325 322 319 319 320 317 314 316 315 311 317 322 317
189 145 193 187 158 188 148 142 137 131 127 124 119 107 98 101 98 89 70 38 3 339 334 338 332 327 326 330 327 317 322 321 322 324 325 319 323 323 312 312 317 323 331 324